Flag for Germany Weather past 2 weeks in Bramsche, Lower Saxony, Germany

Now
65 °F

Overcast.


Feels Like: 65 °F
Forecast: 51 / 74 °F
Wind: 2 mph from Southeast

Location: Muenster / Osnabrueck

Current Time: Aug 1, 2015 at 11:49:11 AM

Latest Report: Aug 1, 2015 at 11:00 AM


Visibility: 25 mi

Pressure: 30.01 "Hg

Humidity: 49%

Dew point: 46 °F

Location of BramscheLocation

Historic Weather in Bramsche — Graph

°F

Bramsche temperature yesterday

Maximum temperature yesterday: 66 °F (at 4:00 PM)
Minimum temperature yesterday: 46 °F (at 7:00 AM)
Average temperature yesterday: 57 °F

Past Weeks' High & Low Weather Summary

 TemperatureHumidityPressure
High89 °F (Jul 17, 5:00 PM)98% (Jul 25, 4:00 AM)30.14 "Hg (Jul 25, 4:00 AM)
Low46 °F (Jul 31, 7:00 AM)33% (Jul 17, 5:00 PM)29.47 "Hg (Jul 25, 9:00 AM)
Average64 °F70%29.86 "Hg
* Reported Jul 17 11:00 AM — Aug 1 11:00 AM, Bramsche, Weather by CustomWeather, © 2015

Note: Actual official high and low records may vary slightly from our data, if they occured in-between our weather recording intervals... More about our weather records

Advertising

Bramsche weather history for previous 24 hours

 ConditionsComfort  
Time TempWeatherWind HumidityBarometerVisibility
11:00 AM
Sat, Aug 1
65 °FOvercast.2 mph49%30.01 "Hg25 mi
10:00 AM62 °FPartly sunny.3 mph52%30.01 "Hg25 mi
9:00 AM60 °FScattered clouds.2 mph60%30.01 "Hg25 mi
8:00 AM55 °FScattered clouds.2 mph72%30.01 "Hg25 mi
7:00 AM49 °FPassing clouds.2 mph87%30.02 "Hg19 mi
5:00 AM51 °FPassing clouds.1 mph82%30.03 "Hg25 mi
4:00 AM50 °FOvercast.1 mph83%30.04 "Hg25 mi
3:00 AM51 °FPassing clouds.2 mph81%30.05 "Hg25 mi
2:00 AM51 °FPassing clouds.2 mph81%30.06 "Hg25 mi
1:00 AM50 °FPassing clouds.1 mph88%30.07 "Hg25 mi
12:00 AM50 °FPassing clouds.1 mph85%30.07 "Hg25 mi
11:00 PM
Fri, Jul 31
53 °FPassing clouds.1 mph77%30.06 "Hg25 mi
10:00 PM55 °FPassing clouds.1 mph73%30.06 "Hg25 mi
9:00 PM60 °FPartly sunny.1 mph60%30.07 "Hg25 mi
8:00 PM63 °FPartly sunny.2 mph46%30.07 "Hg25 mi
7:00 PM64 °FPartly sunny.2 mph39%30.08 "Hg28 mi
6:00 PM64 °FOvercast.3 mph44%30.09 "Hg28 mi
5:00 PM64 °FOvercast.1 mph40%30.09 "Hg25 mi
4:00 PM66 °FPartly sunny.3 mph40%30.10 "Hg25 mi
3:00 PM65 °FPartly sunny.1 mph42%30.12 "Hg25 mi
2:00 PM63 °FOvercast.2 mph43%30.14 "Hg25 mi
1:00 PM62 °FScattered clouds.2 mph46%30.14 "Hg25 mi
12:00 PM60 °FScattered clouds.3 mph54%30.14 "Hg25 mi
11:00 AM60 °FPassing clouds.3 mph55%30.14 "Hg25 mi
Weather by CustomWeather, © 2015

See weather overviewHow to use our weather pages